Stations météo

réclame
Mon MeteoGroup
Boscombe Down, Grande-Bretagne (3746): Température de l'air & dewpoint: 12.11.2018 04:00:00 - 18.11.2018 04:00:00 (GMT)Boscombe Down, Grande-Bretagne (3746): Vitesse du vent & gusts: 12.11.2018 04:00:00 - 18.11.2018 04:00:00 (GMT)Boscombe Down, Grande-Bretagne (3746): Direction du vent: 12.11.2018 04:00:00 - 18.11.2018 04:00:00 (GMT)Boscombe Down, Grande-Bretagne (3746): reduced air pressure: 12.11.2018 04:00:00 - 18.11.2018 04:00:00 (GMT)Boscombe Down, Grande-Bretagne (3746): visibility: 12.11.2018 04:00:00 - 18.11.2018 04:00:00 (GMT)Boscombe Down, Grande-Bretagne (3746): Quantités de précipitations: 12.11.2018 04:00:00 - 18.11.2018 04:00:00 (GMT)
Date & Time tt [°C] td [°C] ff [km/h] ff [knt] fx [km/h] fx [knt] dd ppp [hPa] vv [km] rr [mm]
18.11.2018 04:00:00 - - - - - - - - - -
18.11.2018 03:00:00 4,0 2,5 18 10 - - ENE 1026,4 9 0,0
18.11.2018 02:00:00 4,4 2,9 22 12 - - ENE 1026,4 9 0,0
18.11.2018 01:00:00 4,7 3,2 21 11 - - ENE 1026,5 9 0,0
18.11.2018 00:00:00 4,6 3,3 16 9 - - ENE 1026,4 8 0,0
17.11.2018 23:00:00 5,0 3,3 16 9 - - ENE 1026,4 9 0,0
17.11.2018 22:00:00 5,2 3,6 18 10 - - ENE 1026,3 9 0,0
17.11.2018 21:00:00 5,3 3,8 21 11 - - E 1026,2 11 0,0
17.11.2018 20:00:00 5,4 3,8 15 8 - - E 1026,1 12 0,0
17.11.2018 19:00:00 6,3 4,1 16 9 - - E 1025,6 12 0,0
17.11.2018 18:00:00 7,7 4,0 21 11 - - ENE 1025,0 24 0,0
17.11.2018 17:00:00 8,5 3,1 16 9 - - ENE 1024,9 29 0,0
17.11.2018 16:00:00 9,0 4,4 15 8 - - ENE 1024,9 10 0,0
17.11.2018 15:00:00 9,6 4,1 18 10 - - ENE 1024,9 10 0,0
17.11.2018 14:00:00 9,7 4,6 21 11 - - E 1025,1 10 0,0
17.11.2018 13:00:00 9,2 5,1 22 12 - - E 1025,5 10 0,0
17.11.2018 12:00:00 8,6 4,9 21 11 - - E 1025,8 10 0,0
17.11.2018 11:00:00 7,5 5,5 16 9 - - ENE 1026,3 10 0,0
17.11.2018 10:00:00 6,3 4,8 16 9 - - E 1026,5 10 0,0
17.11.2018 09:00:00 6,8 5,6 21 11 - - E 1026,2 10 0,0
17.11.2018 08:00:00 7,3 6,7 21 11 - - E 1025,8 10 0,0
17.11.2018 07:00:00 7,1 7,0 16 9 - - E 1025,5 4,6 0,0
17.11.2018 06:00:00 7,5 7,4 18 10 - - E 1025,3 2,3 0,0
17.11.2018 05:00:00 7,6 7,6 18 10 - - E 1025,1 2,4 0,0
17.11.2018 04:00:00 7,4 7,4 18 10 - - E 1025,5 1,2 0,0
17.11.2018 03:00:00 8,0 7,9 16 9 - - E 1025,6 2,4 0,0
17.11.2018 02:00:00 8,3 8,2 13 7 - - E 1025,9 1,2 0,0
17.11.2018 01:00:00 8,4 8,4 9 5 - - ESE 1025,8 0,8 0,0
17.11.2018 00:00:00 8,6 8,5 13 7 - - E 1025,7 1,5 0,0
16.11.2018 23:00:00 8,8 8,8 15 8 - - E 1025,5 1,9 0,0
16.11.2018 22:00:00 9,0 8,9 15 8 - - ESE 1025,4 2,5 0,0
16.11.2018 21:00:00 9,1 9,0 15 8 - - E 1025,1 2,5 0,2
16.11.2018 20:00:00 9,1 8,9 16 9 - - E 1025,4 3,9 0,0
16.11.2018 19:00:00 9,1 9,0 13 7 - - E 1025,4 3,6 0,0
16.11.2018 18:00:00 9,4 9,2 11 6 - - E 1025,1 1,8 0,0
16.11.2018 17:00:00 9,7 9,4 11 6 - - E 1024,8 4,0 0,0
16.11.2018 16:00:00 10,2 9,8 15 8 - - ESE 1024,5 4,0 0,0
16.11.2018 15:00:00 10,8 10,2 16 9 - - E 1024,4 10 0,0
16.11.2018 14:00:00 11,4 10,6 16 9 - - E 1024,3 10 0,0
16.11.2018 13:00:00 11,7 10,8 13 7 - - E 1024,6 8 0,0
16.11.2018 12:00:00 11,9 11,4 16 9 - - E 1024,8 5 0,0
16.11.2018 11:00:00 11,9 11,5 13 7 - - E 1024,9 4,5 0,0
16.11.2018 10:00:00 11,9 11,7 11 6 - - E 1025,0 2,5 0,0
16.11.2018 09:00:00 11,9 11,6 11 6 - - E 1024,9 2,5 0,0
16.11.2018 08:00:00 11,7 11,4 9 5 - - ENE 1024,3 3,0 0,0
16.11.2018 07:00:00 11,6 11,1 9 5 - - E 1023,5 3,5 0,0
16.11.2018 06:00:00 11,6 10,8 4 2 - - SE 1023,1 5 0,0
16.11.2018 05:00:00 11,6 11,0 8 4 - - SSE 1022,5 3,6 0,0
16.11.2018 04:00:00 11,6 10,9 8 4 - - SSE 1022,5 7 0,0
16.11.2018 03:00:00 11,6 11,5 5 3 - - ESE 1022,1 1,1 0,0
16.11.2018 02:00:00 11,6 11,5 5 3 - - ESE 1022,4 0,8 0,0
16.11.2018 01:00:00 11,9 11,8 4 2 - - S 1022,1 0,7 0,2
16.11.2018 00:00:00 12,0 11,9 9 5 - - S 1021,9 0,4 0,0
15.11.2018 23:00:00 12,1 11,9 13 7 - - SSE 1021,5 1,7 0,2
15.11.2018 22:00:00 12,1 11,8 15 8 - - SE 1020,9 2,3 0,0
15.11.2018 21:00:00 12,1 11,8 16 9 - - SE 1020,3 2,3 0,2
15.11.2018 20:00:00 12,1 11,7 11 6 - - SE 1020,2 1,9 0,0
15.11.2018 19:00:00 12,1 11,6 15 8 - - SSE 1020,1 4,5 0,0
15.11.2018 18:00:00 12,1 11,3 15 8 - - SSE 1019,8 4,5 0,0
15.11.2018 17:00:00 12,3 11,4 15 8 - - SE 1019,4 6 0,0
15.11.2018 16:00:00 12,7 11,5 15 8 - - SE 1018,9 8 0,0
15.11.2018 15:00:00 12,5 11,7 18 10 - - SE 1019,1 6 0,0
15.11.2018 14:00:00 13,0 11,9 21 11 - - SE 1019,5 7 0,0
15.11.2018 13:00:00 13,5 12,3 21 11 - - SE 1019,6 9 0,0
15.11.2018 12:00:00 12,8 11,5 21 11 - - SSE 1020,0 10 0,0
15.11.2018 11:00:00 12,4 10,4 21 11 - - SSE 1020,3 10 0,0
15.11.2018 10:00:00 11,6 9,8 16 9 - - SSE 1020,6 15 0,0
15.11.2018 09:00:00 10,8 9,4 16 9 - - SSE 1020,5 15 0,0
15.11.2018 08:00:00 9,0 8,5 11 6 - - E 1020,5 10 0,0
15.11.2018 07:00:00 9,7 7,9 11 6 - - SE 1020,0 15 0,0
15.11.2018 06:00:00 10,7 8,7 11 6 - - S 1019,8 16 0,0
15.11.2018 05:00:00 10,9 8,9 13 7 - - S 1019,7 21 0,0
15.11.2018 04:00:00 11,1 9,7 13 7 - - S 1019,8 10 0,0
15.11.2018 03:00:00 11,1 10,3 11 6 - - S 1019,6 9 0,0
15.11.2018 02:00:00 11,1 10,3 15 8 - - S 1019,9 9 0,0
15.11.2018 01:00:00 10,9 10,3 15 8 - - SSE 1019,8 10 0,0
15.11.2018 00:00:00 10,2 10,1 9 5 - - SE 1020,1 3,5 0,0
14.11.2018 23:00:00 9,9 9,7 8 4 - - SSE 1020,3 0,2 0,0
14.11.2018 22:00:00 9,4 9,2 8 4 - - SE 1020,3 3,9 0,0
14.11.2018 21:00:00 8,6 8,3 9 5 - - SE 1020,7 4,7 0,0
14.11.2018 20:00:00 9,1 8,7 11 6 - - SE 1020,6 10 0,0
14.11.2018 19:00:00 9,0 8,2 13 7 - - SSE 1020,7 10 0,0
14.11.2018 18:00:00 9,8 8,7 15 8 - - SSE 1020,6 10 0,0
14.11.2018 17:00:00 9,7 8,3 13 7 - - SSE 1020,5 10 0,0
14.11.2018 16:00:00 11,3 8,8 16 9 - - S 1020,6 10 0,0
14.11.2018 15:00:00 12,4 8,3 22 12 - - S 1020,6 10 0,0
14.11.2018 14:00:00 13,7 8,3 18 10 - - S 1020,5 10 0,0
14.11.2018 13:00:00 13,8 7,8 24 13 - - SSW 1021,0 10 0,0
14.11.2018 12:00:00 13,4 8,0 28 15 - - SSW 1021,5 10 0,0
14.11.2018 11:00:00 12,1 8,7 22 12 - - S 1022,0 10 0,0
14.11.2018 10:00:00 12,0 9,1 28 15 - - S 1022,2 10 0,0
14.11.2018 09:00:00 10,8 9,2 24 13 - - S 1022,3 30 0,0
14.11.2018 08:00:00 10,2 9,1 16 9 - - S 1022,3 10 0,0
14.11.2018 07:00:00 9,7 8,4 15 8 - - S 1022,1 10 0,0
14.11.2018 06:00:00 9,9 8,4 13 7 - - S 1021,8 25 0,0
14.11.2018 05:00:00 10,4 8,5 21 11 - - S 1021,6 30 0,0
14.11.2018 04:00:00 10,7 8,3 22 12 - - S 1021,8 26 0,0
14.11.2018 03:00:00 10,8 8,4 28 15 - - S 1021,9 10 0,0
14.11.2018 02:00:00 10,8 8,6 21 11 - - S 1023,0 30 0,0
14.11.2018 01:00:00 10,7 8,5 18 10 - - S 1023,5 30 0,0
14.11.2018 00:00:00 10,8 9,0 18 10 - - S 1023,9 35 0,0
13.11.2018 23:00:00 10,2 8,6 13 7 - - S 1024,3 27 0,0
13.11.2018 22:00:00 9,7 8,5 9 5 - - S 1024,3 10 0,0
13.11.2018 21:00:00 8,8 7,7 9 5 - - S 1024,5 15 0,0
13.11.2018 20:00:00 9,3 7,8 9 5 - - S 1024,8 10 0,0
13.11.2018 19:00:00 8,6 7,5 11 6 - - SSW 1024,6 24 0,0
13.11.2018 18:00:00 9,8 8,1 11 6 - - SSW 1024,4 10 0,0
13.11.2018 17:00:00 10,5 8,3 16 9 - - SSW 1024,0 10 0,0
13.11.2018 16:00:00 11,0 8,0 18 10 - - SSW 1023,5 10 0,0
13.11.2018 15:00:00 11,9 7,5 16 9 - - SSW 1023,3 10 0,0
13.11.2018 14:00:00 12,8 6,9 21 11 - - SW 1023,1 10 0,0
13.11.2018 13:00:00 12,6 6,1 28 15 - - SW 1022,9 10 0,0
13.11.2018 12:00:00 12,3 7,0 24 13 - - SW 1022,5 10 0,0
13.11.2018 11:00:00 11,8 7,5 22 12 - - WSW 1022,4 10 0,0
13.11.2018 10:00:00 10,7 7,5 21 11 - - SW 1021,4 25 0,0
13.11.2018 09:00:00 9,3 7,0 13 7 - - SSW 1020,6 10 0,0
13.11.2018 08:00:00 8,2 6,4 22 12 - - WSW 1019,6 10 0,0
13.11.2018 07:00:00 7,9 6,0 22 12 - - WSW 1018,5 10 0,0
13.11.2018 06:00:00 7,9 5,9 16 9 - - SW 1017,2 10 0,0
13.11.2018 05:00:00 7,8 5,9 9 5 - - SW 1016,4 30 0,0
13.11.2018 04:00:00 8,1 5,9 21 11 - - WSW 1015,1 10 0,0
13.11.2018 03:00:00 8,3 5,8 21 11 - - SW 1014,5 10 0,0
13.11.2018 02:00:00 9,0 6,3 21 11 - - SW 1014,0 27 0,0
13.11.2018 01:00:00 8,6 6,7 15 8 - - SW 1013,2 10 0,0
13.11.2018 00:00:00 6,4 5,3 13 7 - - S 1012,8 30 0,0
12.11.2018 23:00:00 7,2 5,1 13 7 - - SSW 1012,4 40 0,0
12.11.2018 22:00:00 9,4 6,8 18 10 - - SSW 1011,5 30 0,0
12.11.2018 21:00:00 9,5 6,9 24 13 - - SSW 1011,3 13 0,2
12.11.2018 20:00:00 9,2 6,7 15 8 - - SSW 1011,1 10 0,0
12.11.2018 19:00:00 9,9 8,4 18 10 - - SSW 1011,0 10 0,4
12.11.2018 18:00:00 10,3 8,1 21 11 - - SSW 1010,9 15 0,0
12.11.2018 17:00:00 10,5 8,3 21 11 - - SSW 1010,5 10 0,4
12.11.2018 16:00:00 11,6 8,1 28 15 - - SSW 1010,0 10 0,0
12.11.2018 15:00:00 12,6 8,5 24 13 50 27 SSW 1009,3 10 0,0
12.11.2018 14:00:00 12,8 7,6 35 19 54 29 SSW 1009,1 10 0,0
12.11.2018 13:00:00 13,3 8,2 26 14 46 25 SSW 1008,7 10 0,0
12.11.2018 12:00:00 13,4 9,2 29 16 46 25 SSW 1008,5 10 0,0
12.11.2018 11:00:00 11,7 8,9 22 12 - - SSW 1008,7 10 0,0
12.11.2018 10:00:00 11,7 9,6 15 8 - - S 1008,7 10 0,0
12.11.2018 09:00:00 9,5 8,4 11 6 - - SSE 1008,6 10 0,0
12.11.2018 08:00:00 8,4 7,8 8 4 - - SSW 1008,3 10 0,2
12.11.2018 07:00:00 7,7 7,1 5 3 - - S 1007,3 10 0,0
12.11.2018 06:00:00 8,1 6,8 4 2 - - ESE 1006,8 10 0,0
12.11.2018 05:00:00 8,6 7,6 8 4 - - SSE 1006,4 10 0,0
12.11.2018 04:00:00 9,2 8,4 5 3 - - S 1006,1 10 0,0

tt = Température de l'air
td = dewpoint
ff = Vitesse du vent
fx = gusts
dd = Direction du vent
ppp = reduced air pressure
vv = visibility
rr = Quantités de précipitations

stations d'obs. à proximité